Weather History for EGUL - August, 2013

Change the Weather History Date:

Thursday, August 8, 2013

  Actual Average (EGSC) Record (EGSC)
Temperature  
Mean Temperature 58 °F -  
Max Temperature 75 °F 72 °F 86 °F (2004)
Min Temperature 42 °F 58 °F 50 °F (2013)
Degree Days  
Heating Degree Days 8    
Growing Degree Days 8 (Base 50)    
Moisture  
Dew Point 50 °F    
Average Humidity 84    
Maximum Humidity 100    
Minimum Humidity 41    
Precipitation  
Precipitation 0.00 in - - ()
Sea Level Pressure  
Sea Level Pressure 30.09 in    
Wind  
Wind Speed 2 mph ()    
Max Wind Speed 9 mph    
Max Gust Speed -    
Visibility 3.8 miles    
Events Fog    
Averages and records for this station are not official NWS values.
T = Trace of Precipitation, MM = Missing Value Source: Averaged Metar Reports

Daily Weather History Graph

Daily Weather History Graph

Search for Another Location

Airport or City:

Trip Planner

Search our weather history database for the weather conditions in past years. The results will help you decide how hot, cold, wet, or windy it might be!

Date:

Astronomy

Aug. 08, 2013 Rise Set
Actual Time 5:29 AM BST 8:36 PM BST
Civil Twilight 4:49 AM BST 9:16 PM BST
Nautical Twilight 3:55 AM BST 10:08 PM BST
Astronomical Twilight 2:45 AM BST 11:18 PM BST
Moon 7:22 AM BST (8/8) 8:42 PM BST (8/8)
Length of Visible Light 16h 27m
Length of Day
15h 07m
New Moon, 2% of the Moon is Illuminated
Aug 8
New Moon
Aug 14
First Quarter
Aug 21
Full
Aug 28
Last Quarter
Sep 5
New

Hourly Weather History & Observations

Time (BST) Temp. Dew Point Humidity Pressure Visibility Wind Dir Wind Speed Gust Speed Precip Events Conditions
12:58 AM 46.8 °F 44.8 °F 93% 30.05 in 6.2 mi Calm Calm - N/A   Clear
1:58 AM 46.0 °F 43.9 °F 92% 30.06 in 6.2 mi Calm Calm - N/A   Clear
2:58 AM 45.3 °F 43.2 °F 92% 30.06 in 6.2 mi SW 2.3 mph - N/A   Clear
3:58 AM 44.2 °F 42.1 °F 92% 30.05 in 6.2 mi South 1.2 mph - N/A   Clear
4:58 AM 43.9 °F 42.3 °F 94% 30.06 in 6.2 mi Calm Calm - N/A   Clear
5:47 AM 42.8 °F 41.0 °F 93% 30.06 in 6.2 mi ENE 2.3 mph - N/A   Partly Cloudy
5:55 AM 44.6 °F 44.6 °F 100% 30.09 in 0.2 mi Calm Calm - N/A Fog Fog
5:56 AM 42.8 °F 41.0 °F 93% 30.07 in 6.2 mi NE 1.2 mph - N/A   Mostly Cloudy
5:58 AM 42.8 °F 41.0 °F 93% 30.08 in 6.2 mi NE 1.2 mph - N/A   Mostly Cloudy
6:07 AM 42.8 °F 42.8 °F 100% 30.08 in 0.2 mi Calm Calm - N/A   Unknown
6:16 AM 44.6 °F 44.6 °F 100% 30.09 in 0.2 mi Calm Calm - N/A Fog Fog
6:44 AM 46.4 °F 46.4 °F 100% 30.09 in - Calm Calm - N/A Fog Fog
6:58 AM 47.7 °F 47.7 °F 100% 30.09 in - Calm Calm - N/A Fog Fog
7:58 AM 50.4 °F 50.4 °F 100% 30.10 in - SE 1.2 mph - N/A Fog Fog
8:19 AM 51.8 °F 51.8 °F 100% 30.09 in - SW 2.3 mph - N/A Fog Fog
8:28 AM 51.8 °F 51.8 °F 100% 30.10 in 0.2 mi SSW 3.5 mph - N/A Fog Fog
8:42 AM 51.8 °F 51.8 °F 100% 30.10 in 0.5 mi SW 2.3 mph - N/A Fog Fog
8:47 AM 53.6 °F 53.6 °F 100% 30.10 in 0.5 mi SW 2.3 mph - N/A Fog Fog
8:53 AM 53.6 °F 53.6 °F 100% 30.10 in 0.7 mi WSW 3.5 mph - N/A   Mist
8:54 AM 53.6 °F 53.6 °F 100% 30.10 in 0.7 mi WSW 4.6 mph - N/A   Mist
8:56 AM 53.6 °F 53.6 °F 100% 30.10 in 0.7 mi WSW 2.3 mph - N/A   Mist
8:57 AM 53.6 °F 53.6 °F 100% 30.10 in 1.0 mi WSW 2.3 mph - N/A   Mist
8:58 AM 53.6 °F 53.6 °F 100% 30.11 in 1.0 mi West 2.3 mph - N/A   Mist
9:00 AM 53.6 °F 53.6 °F 100% 30.10 in 1.2 mi Variable 2.3 mph - N/A   Overcast
9:01 AM 53.6 °F 53.6 °F 100% 30.10 in 1.0 mi SW 3.5 mph - N/A   Mist
9:05 AM 53.6 °F 53.6 °F 100% 30.10 in 1.0 mi West 3.5 mph - N/A   Mist
9:06 AM 53.6 °F 53.6 °F 100% 30.11 in 0.7 mi West 4.6 mph - N/A   Mist
9:12 AM 53.6 °F 53.6 °F 100% 30.10 in 1.0 mi Calm Calm - N/A   Mist
9:13 AM 53.6 °F 53.6 °F 100% 30.10 in 1.0 mi Calm Calm - N/A   Mist
9:15 AM 53.6 °F 53.6 °F 100% 30.10 in 1.2 mi West 1.2 mph - N/A   Overcast
9:19 AM 53.6 °F 53.6 °F 100% 30.10 in 1.5 mi Calm Calm - N/A   Overcast
9:23 AM 53.6 °F 53.6 °F 100% 30.10 in 1.7 mi Variable 1.2 mph - N/A   Overcast
9:27 AM 55.4 °F 55.4 °F 100% 30.10 in - Calm Calm - N/A   Overcast
9:30 AM 55.4 °F 55.4 °F 100% 30.10 in 2.5 mi Calm Calm - N/A   Mostly Cloudy
9:33 AM 55.4 °F 55.4 °F 100% 30.10 in 3.1 mi Variable 1.2 mph - N/A   Mostly Cloudy
9:41 AM 57.2 °F 57.2 °F 100% 30.10 in 5.0 mi Variable 1.2 mph - N/A   Scattered Clouds
9:58 AM 58.3 °F 58.3 °F 100% 30.11 in 6.2 mi Variable 2.3 mph - N/A   Partly Cloudy
10:58 AM 64.2 °F 57.0 °F 77% 30.12 in 6.2 mi Variable 4.6 mph - N/A   Clear
11:58 AM 67.8 °F 51.8 °F 56% 30.11 in 6.2 mi NNW 6.9 mph - N/A   Clear
12:58 PM 68.9 °F 50.2 °F 51% 30.10 in 6.2 mi Variable 2.3 mph - N/A   Clear
1:58 PM 71.2 °F 49.8 °F 47% 30.10 in 6.2 mi Variable 2.3 mph - N/A   Partly Cloudy
2:58 PM 72.3 °F 50.9 °F 47% 30.09 in 6.2 mi NNE 4.6 mph - N/A   Scattered Clouds
3:58 PM 72.9 °F 49.3 °F 43% 30.09 in 6.2 mi Variable 6.9 mph - N/A   Scattered Clouds
4:58 PM 73.0 °F 49.1 °F 43% 30.09 in 6.2 mi Variable 5.8 mph - N/A   Clear
5:33 PM 73.4 °F 48.2 °F 41% 30.08 in 6.2 mi WSW 5.8 mph - N/A   Light Drizzle
5:42 PM 73.4 °F 48.2 °F 41% 30.07 in 6.2 mi West 3.5 mph - N/A   Clear
5:58 PM 73.4 °F 48.6 °F 41% 30.08 in 6.2 mi SSE 3.5 mph - 0.00 in   Clear
6:58 PM 72.9 °F 48.2 °F 42% 30.07 in 6.2 mi South 5.8 mph - N/A   Clear
7:58 PM 70.9 °F 49.5 °F 47% 30.07 in 6.2 mi SE 4.6 mph - N/A   Clear
8:58 PM 66.9 °F 52.5 °F 60% 30.07 in 6.2 mi SSE 6.9 mph - N/A   Partly Cloudy
9:58 PM 66.2 °F 55.0 °F 67% 30.08 in 6.2 mi South 9.2 mph - N/A   Overcast
10:58 PM 66.0 °F 54.5 °F 66% 30.07 in 6.2 mi SSW 8.1 mph - N/A   Mostly Cloudy
11:58 PM 66.2 °F 54.1 °F 65% 30.07 in 6.2 mi South 8.1 mph - N/A   Partly Cloudy